Regional Weather Roundup
Issued by NWS Cleveland, OH

Home | Current Version | Previous Version | Graphics & Text | Print | Product List | Glossary On
Versions: 1 2 3 4 5 6 7 8 9 10 11 12 13 14 15 16 17 18 19 20 21 22 23 24 25 26 27 28 29 30 31 32 33 34 35 36 37 38 39 40 41 42 43 44 45 46 47 48 49 50
684
ASUS41 KCLE 090212
RWRCLE
OHIO REGIONAL WEATHER ROUNDUP
NATIONAL WEATHER SERVICE WILMINGTON, OH
900 PM EST THU DEC 08 2016

NOTE: "FAIR" INDICATES FEW OR NO CLOUDS BELOW 12,000 FEET WITH NO
SIGNIFICANT WEATHER AND/OR OBSTRUCTIONS TO VISIBILITY.

OHZ001>008-015>018-024>027-034-035-043-044-090300-
   NORTHWEST OHIO

CITY           SKY/WX    TMP DP  RH WIND       PRES   REMARKS
DEFIANCE       CLOUDY    22  14  71 SW12G22   30.32R WCI  10
FINDLAY        FLURRIES  22  14  71 W23       30.30S WCI   6
TOLEDO EXPRESS FAIR      21  17  84 W17       30.28R WCI   7
TOLEDO EXEC    CLOUDY    23  17  78 W16       30.29R WCI  10
LIMA           FLURRIES  20  15  81 W18       30.32S WCI   5
$$

OHZ009>014-019>023-028>033-038-089-090300-
   NORTHEAST OHIO

CITY           SKY/WX    TMP DP  RH WIND       PRES   REMARKS
CLE-HOPKINS    FLURRIES  25  15  66 W20G28    30.26R WCI  11
CLE-LAKEFRONT  FLURRIES  25  18  74 SW23G32   30.22R WCI  10
CUY CO. ARPT   LGT SNOW  27  19  74 W14       30.20S WCI  15
LORAIN-ELYRIA  CLOUDY    23  14  68 W15G24    30.25S WCI  10
ASHTABULA      LGT SNOW  24  21  88 SW12      30.16R FOG     WCI  13
AKRON-CANTON   LGT SNOW  23  14  68 W15       30.22S WCI  10
WOOSTER        FLURRIES  22  15  75 W15       30.25R WCI   9
MANSFIELD      LGT SNOW  20  15  81 W14G23    30.25R WCI   7
YOUNGSTOWN     FLURRIES  23  16  74 SW16      30.17S WCI  10
$$

OHZ042-051>053-060>062-070>072-077>081-090300-
  SOUTHWEST OHIO

CITY           SKY/WX    TMP DP  RH WIND       PRES   REMARKS
CINC-COVINGTON FLURRIES  23  13  65 W14       30.41R WCI  11
CINC-LUNKEN    CLOUDY    25  14  63 W14G22    30.45R WCI  13
HAMILTON       CLOUDY    24  16  71 W12       30.43R WCI  13
DAYTON         FLURRIES  20  13  74 NW14      30.38R WCI   7
WRIGHT-PAT AFB FLURRIES  22  15  73 W13       30.38R WCI  10
DAYTON GENERAL LGT SNOW  23  16  74 W9        30.37R WCI  13
WILMINGTON     FLURRIES  22  16  78 W13G22    30.36R WCI  10
$$

OHZ036-037-039>041-045>050-054>059-063>069-073>076-082>088-090300-
  CENTRAL AND SOUTHEAST OHIO

CITY           SKY/WX    TMP DP  RH WIND       PRES   REMARKS
COLUMBUS       MOCLDY    22  14  71 W18       30.33S WCI   7
OSU AIRPORT    CLOUDY    21  14  74 W15       30.33S WCI   8
BOLTON FIELD   CLOUDY    22  16  78 W7        30.35S WCI  13
RICKENBACK AFB FLURRIES  23  16  76 W13G20    30.35S WCI  11
NEWARK         CLOUDY    24  15  68 W13       30.32R WCI  12
MARION         FLURRIES  21  14  74 W13       30.31R WCI   9
LANCASTER      FLURRIES  24  16  71 NW12G21   30.34S WCI  13
ZANESVILLE     LGT SNOW  24  17  74 W9        30.30S WCI  14
NEW PHILLY     CLOUDY    24  16  71 W9        30.28S WCI  14
$$




USA.gov is the U.S. government's official web portal to all federal, state and local government web resources and services.